Wind_Speed
10 11 11 11 11 12 12 11 12 12 11 12 12 13 13 12 13 14 14 14 15 15 16 18 18 18 19 19 20 21 23 23 24 24 25 25 26 25 25 25 26 26 26
11 11 13 13 13 14 14 13 13 13 12 13 13 13 13 13 13 15 15 16 16 16 17 18 19 19 20 21 21 21 22 23 23 24 25 26 26 26 26 26 26 27 27
13 13 14 15 15 15 16 16 16 16 14 13 14 14 13 14 15 16 16 17 17 17 18 18 19 20 20 21 22 22 23 24 24 24 24 25 26 27 27 27 27 27 27
14 14 15 16 17 17 18 18 18 17 16 15 15 15 15 15 17 17 17 18 18 18 19 20 20 21 21 22 22 23 24 24 24 24 23 25 26 26 26 27 27 27 28
16 16 17 18 19 19 20 20 20 20 18 16 16 16 17 17 18 19 19 19 20 20 21 22 22 22 21 22 22 23 24 24 24 25 25 25 26 26 26 27 27 26 27
19 18 18 19 21 21 22 22 21 20 19 18 18 18 18 19 20 21 22 22 22 23 24 24 24 23 23 23 23 23 24 24 25 25 26 26 27 27 27 27 27 27 28
22 21 20 21 22 23 23 22 22 21 21 20 20 20 20 21 22 23 24 24 24 25 25 25 25 25 25 25 25 25 25 25 25 25 26 26 27 27 27 27 28 28 28
25 25 24 24 25 25 25 24 24 24 23 23 23 22 23 23 24 25 25 26 26 26 27 27 27 27 27 27 26 26 27 27 27 26 26 26 27 27 27 28 28 28 28
28 28 28 28 27 27 26 26 26 27 26 25 25 25 25 25 26 27 27 27 27 27 28 28 28 28 28 27 26 27 27 27 27 27 27 27 27 28 28 28 29 29 29
30 30 31 30 29 28 28 28 29 29 28 27 27 27 27 28 28 29 29 28 28 29 29 30 29 29 29 28 27 27 28 28 28 28 28 28 28 28 29 29 29 29 29
34 35 33 32 31 30 30 29 30 30 30 30 29 29 30 30 31 31 30 30 30 30 30 31 31 30 30 30 29 29 29 29 29 29 29 29 30 30 30 30 30 31 31
38 37 34 34 34 33 31 31 32 32 31 31 32 31 31 32 32 32 31 31 32 32 32 31 31 31 31 31 30 30 31 31 30 30 30 30 30 31 31 32 32 32 32
40 39 39 37 35 34 33 33 33 34 33 34 34 33 33 34 34 33 33 33 33 33 33 33 33 33 33 32 32 32 32 32 32 32 31 31 31 32 32 32 33 33 33
41 41 40 38 36 36 35 34 35 35 35 36 35 34 35 34 34 34 33 33 34 34 34 34 34 34 34 34 34 34 34 34 34 33 33 33 32 32 33 33 34 35 35
41 40 39 39 36 35 36 37 35 35 35 36 35 34 35 35 35 35 35 35 35 35 35 36 36 35 36 36 36 36 35 35 35 34 34 34 34 34 35 35 36 36 36
41 40 38 37 36 36 37 37 37 35 35 35 35 35 36 36 36 36 36 37 37 36 36 37 37 37 37 37 37 37 37 37 36 36 36 36 36 36 36 36 37 37 37
42 40 39 39 38 38 38 37 37 36 34 35 35 36 36 36 36 36 36 37 37 36 37 37 38 38 37 37 37 38 38 38 38 38 38 38 37 38 38 38 38 38 38
42 40 41 40 40 39 38 37 37 37 36 36 37 37 37 37 36 36 37 37 37 37 37 38 38 38 38 38 38 38 38 38 38 39 39 39 39 39 39 39 39 39 39
41 40 41 41 41 40 39 39 38 38 37 37 37 37 37 38 38 38 39 39 39 39 39 39 39 39 38 38 38 38 37 37 38 38 39 38 38 39 39 40 40 40 41
41 40 40 40 40 39 39 38 37 37 37 37 37 37 38 38 39 39 40 40 40 40 40 39 39 38 38 38 38 37 37 37 38 39 39 39 39 39 40 40 40 41 41
40 40 40 39 39 39 39 40 39 39 38 37 37 37 38 39 40 40 40 40 40 40 39 39 38 38 38 37 37 36 37 38 39 39 39 39 39 39 39 39 40 40 40
36 36 37 38 39 40 40 40 39 38 37 37 37 38 38 39 40 41 40 39 38 38 38 38 38 37 36 36 36 37 37 37 38 38 38 39 39 39 39 39 38 38 38
36 36 37 37 38 38 37 37 37 37 37 37 36 37 37 37 37 37 36 36 36 36 36 36 36 36 35 36 36 37 37 37 37 37 37 38 38 38 38 37 37 38 38
35 35 36 36 36 36 36 36 36 35 35 35 35 35 36 35 35 35 35 34 35 35 35 35 35 35 35 36 36 36 36 36 36 36 37 37 37 37 37 37 37 38 38
33 34 34 34 34 34 34 34 34 33 34 35 35 35 34 34 34 34 33 33 34 34 34 34 34 35 35 35 36 36 36 36 36 36 36 37 37 37 37 37 37 37 37
32 32 32 32 32 32 32 33 33 33 33 33 32 33 33 33 33 33 33 33 33 33 32 32 33 34 34 35 35 36 36 36 36 36 36 36 37 37 37 37 37 37 37
Wind_Direction
326 329 331 329 329 330 330 333 336 335 328 327 325 320 318 316 316 317 312 311 309 306 302 300 299 297 294 292 291 287 282 280 279 279 282 281 280 280 280 278 277 276 277
319 321 324 324 321 324 323 321 325 331 329 326 324 317 314 315 316 317 317 313 310 308 307 303 299 297 296 293 292 291 288 285 283 281 281 280 279 279 279 279 279 279 279
308 314 316 317 316 316 319 319 318 321 320 321 325 326 319 319 318 316 316 315 312 310 309 306 303 301 299 296 293 292 290 288 286 283 282 282 282 281 280 281 281 279 280
304 306 308 308 311 310 314 317 317 321 321 321 323 323 321 323 325 322 320 317 314 312 311 308 303 301 300 298 295 293 291 290 288 286 286 284 283 283 283 283 283 282 280
300 302 304 303 306 309 311 308 311 314 316 317 319 321 320 320 321 322 321 320 318 317 314 313 308 304 303 302 302 299 295 292 290 289 287 287 286 285 285 284 284 285 284
297 299 300 301 302 305 305 305 303 306 308 310 311 313 315 316 316 317 319 318 316 314 312 312 311 307 305 302 302 301 298 294 291 289 288 287 287 286 285 285 283 283 285
292 293 294 296 299 302 304 304 301 301 302 304 305 306 308 311 312 314 315 316 314 314 313 310 308 306 304 302 300 299 297 295 292 290 289 288 289 287 286 286 285 283 284
290 290 289 292 295 296 298 299 298 298 299 300 301 301 303 306 308 309 311 312 313 313 313 312 309 306 305 303 300 299 297 295 294 291 290 290 290 289 288 287 286 285 285
287 286 287 288 291 293 292 293 293 294 295 296 297 300 301 302 304 307 308 309 310 312 311 311 310 309 306 303 301 299 298 297 295 293 290 289 289 289 288 287 287 287 287
283 284 283 284 287 289 291 291 291 292 292 292 294 296 298 300 301 303 305 307 308 309 309 308 308 307 307 304 301 300 299 299 297 295 292 290 288 288 289 288 288 288 289
282 284 282 283 283 284 287 289 289 290 290 291 291 293 295 297 299 300 300 302 304 305 306 305 305 304 304 303 300 299 299 298 298 295 292 290 289 289 289 288 288 289 288
281 281 280 281 280 280 283 287 288 289 291 291 291 292 294 295 296 296 297 299 301 302 303 303 302 302 301 301 300 298 297 297 297 295 293 291 290 289 289 288 288 288 288
279 280 281 280 280 281 282 284 286 288 289 291 291 290 292 293 294 295 296 297 299 300 301 301 300 300 300 299 299 297 296 295 294 294 292 291 290 290 289 288 287 287 287
275 277 279 281 282 281 281 282 284 287 288 290 290 289 290 292 294 294 295 296 298 299 299 299 299 298 298 298 298 297 296 295 293 292 292 292 291 290 290 290 289 288 288
275 279 280 282 283 283 282 283 284 287 289 290 290 291 291 292 293 293 293 293 295 297 297 298 298 296 296 296 297 296 295 294 293 292 292 291 291 291 291 290 290 289 289
276 281 281 281 282 284 286 285 286 287 287 287 289 290 290 291 291 291 290 291 292 294 295 295 295 295 294 294 294 294 293 292 291 291 291 290 290 290 290 290 291 290 289
274 277 278 281 283 283 284 285 283 284 285 286 288 289 289 290 290 290 290 291 291 292 293 294 294 295 294 294 293 293 292 291 290 289 289 289 290 290 290 290 290 290 289
272 273 276 279 281 280 281 282 282 282 283 285 285 286 287 288 289 290 291 292 292 292 293 293 294 294 294 293 292 293 292 290 289 289 288 289 289 290 290 290 290 290 289
272 274 276 278 278 278 280 283 284 282 282 284 284 284 285 287 288 289 291 292 292 293 293 293 294 293 293 292 292 292 291 290 290 291 290 290 291 291 291 291 291 290 290
272 274 275 275 276 279 281 282 283 282 281 281 282 284 286 286 288 288 288 290 292 293 293 293 292 292 292 292 292 291 290 290 291 291 291 291 291 291 292 292 291 290 290
268 270 273 275 277 279 280 282 283 284 282 281 283 285 286 287 288 288 288 289 291 291 291 291 291 291 291 292 292 292 292 292 293 293 293 293 293 293 293 293 293 293 292
268 272 273 274 276 278 280 281 281 282 282 282 284 285 286 286 288 289 289 289 290 291 290 290 290 291 291 292 292 293 293 294 294 294 294 294 294 294 294 294 294 294 294
269 271 272 274 275 277 277 278 279 279 281 283 284 284 285 286 287 289 290 290 291 290 289 289 290 291 293 293 293 293 294 294 295 295 295 295 294 295 296 296 296 296 296
269 270 272 273 274 274 275 275 277 280 281 282 284 285 287 288 288 289 290 290 290 290 290 289 291 293 294 294 294 294 294 295 294 294 295 295 295 296 297 297 297 296 296
269 271 272 272 273 274 276 278 280 281 282 283 284 286 287 287 288 288 288 289 290 290 289 290 291 293 293 294 294 294 294 294 293 294 295 296 297 297 298 298 298 298 297
273 273 273 274 275 276 278 280 281 282 283 283 284 286 287 287 288 288 288 289 290 291 291 292 293 293 293 294 294 294 294 294 294 294 296 297 298 299 298 298 298 298 297
Height
5900 5899 5897 5895 5894 5892 5890 5888 5887 5885 5883 5881 5880 5878 5877 5875 5873 5871 5869 5867 5865 5864 5862 5861 5859 5857 5856 5854 5852 5851 5850 5849 5849 5848 5846 5845 5844 5843 5842 5841 5840 5840 5839
5898 5897 5896 5894 5892 5890 5888 5886 5884 5882 5881 5879 5877 5875 5873 5872 5870 5868 5866 5864 5862 5860 5858 5856 5854 5853 5851 5849 5848 5846 5845 5843 5843 5842 5840 5839 5838 5837 5836 5835 5834 5833 5832
5896 5895 5893 5891 5889 5887 5885 5883 5881 5879 5877 5876 5874 5872 5870 5869 5867 5865 5863 5861 5858 5856 5854 5852 5850 5848 5846 5844 5843 5841 5839 5838 5836 5835 5834 5833 5831 5830 5829 5828 5827 5826 5825
5892 5891 5889 5888 5886 5884 5883 5881 5878 5876 5874 5873 5871 5869 5867 5866 5864 5862 5860 5857 5855 5852 5850 5848 5846 5844 5841 5839 5837 5835 5833 5832 5830 5829 5828 5826 5825 5823 5822 5821 5819 5818 5818
5888 5887 5885 5883 5882 5881 5879 5877 5875 5874 5872 5870 5868 5866 5864 5862 5860 5858 5856 5854 5851 5848 5846 5843 5841 5838 5836 5834 5832 5829 5827 5825 5824 5822 5821 5820 5818 5816 5815 5814 5812 5811 5810
5884 5882 5880 5879 5878 5877 5875 5873 5872 5870 5867 5866 5864 5862 5860 5858 5856 5854 5852 5849 5847 5844 5841 5838 5836 5833 5831 5828 5826 5824 5822 5819 5817 5816 5814 5812 5811 5809 5807 5806 5805 5804 5802
5878 5877 5876 5875 5873 5872 5869 5868 5866 5864 5863 5861 5859 5858 5856 5853 5851 5849 5847 5844 5841 5838 5836 5833 5830 5827 5824 5822 5820 5817 5815 5813 5811 5809 5807 5805 5803 5801 5800 5798 5797 5796 5794
5871 5870 5869 5868 5867 5865 5863 5862 5860 5858 5857 5855 5854 5852 5850 5848 5846 5843 5841 5838 5835 5833 5830 5827 5824 5821 5818 5815 5813 5811 5808 5806 5803 5801 5800 5798 5796 5794 5792 5791 5789 5788 5787
5865 5863 5862 5861 5859 5857 5856 5855 5853 5852 5850 5848 5847 5845 5844 5842 5840 5837 5835 5832 5829 5826 5824 5821 5818 5814 5812 5808 5806 5803 5801 5798 5796 5794 5792 5790 5788 5786 5784 5783 5781 5780 5778
5856 5855 5854 5852 5851 5850 5848 5847 5846 5844 5842 5841 5839 5838 5837 5835 5833 5830 5828 5825 5822 5820 5817 5814 5811 5808 5804 5802 5799 5796 5794 5791 5789 5786 5784 5782 5780 5778 5776 5775 5773 5771 5769
5847 5846 5844 5843 5843 5841 5839 5838 5837 5836 5834 5833 5831 5830 5829 5827 5825 5822 5820 5818 5815 5812 5809 5806 5803 5800 5797 5794 5791 5789 5786 5784 5781 5779 5776 5774 5772 5770 5768 5766 5764 5762 5760
5837 5834 5834 5834 5833 5831 5830 5829 5829 5827 5825 5824 5823 5822 5820 5818 5816 5813 5811 5809 5806 5804 5801 5798 5795 5793 5790 5787 5784 5781 5778 5776 5773 5771 5768 5766 5764 5762 5759 5757 5755 5753 5751
5827 5826 5825 5824 5823 5822 5821 5821 5820 5818 5816 5815 5813 5812 5810 5808 5806 5804 5802 5799 5797 5795 5792 5789 5787 5784 5781 5778 5775 5773 5770 5767 5765 5762 5760 5757 5755 5753 5750 5748 5746 5743 5741
5816 5815 5814 5814 5813 5812 5811 5811 5809 5808 5806 5805 5803 5802 5800 5798 5796 5794 5792 5790 5787 5785 5782 5780 5777 5775 5772 5769 5766 5763 5761 5758 5755 5753 5750 5748 5746 5743 5741 5739 5736 5734 5731
5805 5803 5803 5803 5803 5802 5801 5800 5799 5798 5796 5795 5793 5791 5790 5788 5786 5784 5782 5780 5778 5775 5773 5770 5767 5765 5762 5759 5756 5753 5751 5748 5745 5743 5740 5738 5735 5733 5731 5728 5726 5723 5721
5794 5793 5793 5792 5792 5792 5791 5790 5788 5787 5785 5784 5783 5781 5779 5777 5775 5774 5772 5769 5767 5765 5763 5760 5757 5754 5751 5749 5746 5743 5740 5737 5735 5732 5730 5727 5725 5722 5720 5717 5714 5712 5710
5782 5783 5783 5783 5781 5781 5780 5779 5778 5777 5775 5773 5772 5770 5769 5767 5765 5763 5761 5759 5756 5754 5752 5749 5746 5744 5741 5738 5735 5732 5729 5726 5724 5721 5718 5716 5713 5711 5708 5705 5703 5700 5697
5770 5771 5771 5771 5770 5769 5769 5768 5767 5766 5764 5762 5761 5759 5758 5756 5754 5752 5750 5747 5745 5743 5740 5738 5735 5732 5729 5726 5723 5720 5718 5715 5712 5709 5707 5704 5701 5699 5696 5693 5691 5688 5685
5758 5759 5759 5758 5758 5758 5757 5756 5755 5754 5752 5750 5749 5748 5747 5745 5743 5741 5738 5736 5734 5732 5729 5726 5723 5720 5717 5715 5712 5709 5706 5703 5701 5698 5695 5692 5689 5687 5684 5681 5678 5675 5672
5747 5747 5747 5747 5747 5746 5745 5744 5743 5742 5741 5739 5738 5737 5736 5734 5732 5729 5727 5724 5722 5720 5717 5714 5711 5708 5705 5703 5700 5697 5695 5692 5689 5686 5683 5680 5677 5675 5672 5669 5666 5663 5660
5735 5735 5735 5735 5735 5735 5734 5733 5732 5731 5729 5728 5727 5726 5725 5722 5720 5717 5715 5712 5710 5707 5705 5702 5699 5697 5694 5691 5688 5686 5683 5680 5678 5675 5672 5669 5666 5663 5660 5657 5654 5651 5647
5723 5724 5724 5723 5723 5723 5722 5721 5720 5719 5718 5716 5715 5714 5712 5710 5708 5706 5703 5700 5698 5695 5693 5690 5688 5685 5683 5680 5677 5675 5672 5669 5666 5663 5660 5657 5654 5651 5648 5644 5641 5638 5635
5713 5713 5713 5712 5712 5711 5711 5710 5709 5708 5706 5705 5704 5702 5700 5698 5696 5694 5691 5689 5686 5684 5681 5679 5676 5674 5671 5668 5666 5663 5660 5658 5654 5651 5648 5645 5642 5639 5636 5633 5629 5626 5623
5702 5702 5702 5701 5701 5700 5699 5699 5698 5697 5695 5694 5692 5690 5689 5686 5684 5682 5680 5677 5675 5672 5670 5667 5665 5662 5659 5657 5654 5652 5649 5646 5643 5640 5637 5634 5631 5628 5624 5621 5618 5615 5611
5692 5692 5691 5691 5691 5690 5689 5688 5687 5685 5684 5683 5681 5679 5677 5675 5673 5671 5669 5667 5664 5662 5659 5657 5654 5651 5649 5646 5643 5641 5638 5635 5632 5629 5626 5623 5620 5617 5613 5610 5606 5603 5600
5682 5682 5681 5681 5681 5680 5679 5678 5677 5675 5674 5672 5670 5668 5666 5664 5663 5661 5659 5657 5654 5651 5649 5646 5643 5641 5638 5635 5633 5630 5627 5624 5621 5618 5615 5612 5609 5605 5602 5598 5595 5592 5588